VXP675 KHVN-KRDU

Flight info

Callsign VXP675
Flight time 1h 11m
Altitude 30000
Route BEADS EMJAY Q167 ZJAAY TAQLE3
Aircraft B738/M-SDE2E3FGHIRWXY/LB1

Departure

Time 2026-05-05 16:01
Airport Tweed New Haven Airport (KHVN)

Arrival

Time 2026-05-05 17:13
Airport Raleigh-Durham International Airport (KRDU)
Time Latitude Longitude Altitude Speed Heading
2026-05-05 15:51 41.26856 -72.89070 14 ft 0 kts 310°
2026-05-05 15:55 41.26848 -72.89058 14 ft 2 kts 310°
2026-05-05 15:56 41.26838 -72.89043 14 ft 2 kts 310°
2026-05-05 15:56 41.26828 -72.89027 14 ft 2 kts 310°
2026-05-05 15:56 41.26819 -72.89012 15 ft 2 kts 330°
2026-05-05 15:56 41.26808 -72.89009 15 ft 0 kts
2026-05-05 15:57 41.26801 -72.89011 15 ft 1 kts 10°
2026-05-05 15:57 41.26800 -72.89011 15 ft 0 kts
2026-05-05 15:58 41.26808 -72.89006 15 ft 4 kts 32°
2026-05-05 15:59 41.26851 -72.88939 15 ft 12 kts 46°
2026-05-05 15:59 41.26926 -72.88905 16 ft 11 kts
2026-05-05 15:59 41.26996 -72.88892 16 ft 9 kts 13°
2026-05-05 15:59 41.27064 -72.88837 17 ft 12 kts 38°
2026-05-05 16:00 41.27122 -72.88765 17 ft 10 kts 57°
2026-05-05 16:00 41.27108 -72.88722 17 ft 2 kts 180°
2026-05-05 16:00 41.27107 -72.88722 17 ft 0 kts 183°
2026-05-05 16:00 41.27105 -72.88722 17 ft 0 kts 183°
2026-05-05 16:01 41.26853 -72.88739 16 ft 75 kts 182°
2026-05-05 16:01 41.26089 -72.88791 14 ft 141 kts 183°
2026-05-05 16:01 41.25043 -72.88853 545 ft 148 kts 183°
2026-05-05 16:01 41.23985 -72.88875 1065 ft 163 kts 176°
2026-05-05 16:02 41.22923 -72.88160 1605 ft 188 kts 139°
2026-05-05 16:02 41.21993 -72.86870 2086 ft 201 kts 146°
2026-05-05 16:02 41.20798 -72.85850 2583 ft 210 kts 159°
2026-05-05 16:02 41.19431 -72.84983 3017 ft 229 kts 161°
2026-05-05 16:03 41.17953 -72.84044 3576 ft 243 kts 160°
2026-05-05 16:03 41.16397 -72.83009 4137 ft 258 kts 159°
2026-05-05 16:03 41.14794 -72.81922 4913 ft 262 kts 159°
2026-05-05 16:03 41.13168 -72.80819 5687 ft 266 kts 159°
2026-05-05 16:04 41.11525 -72.79711 6512 ft 268 kts 159°
2026-05-05 16:04 41.09854 -72.78591 7242 ft 273 kts 160°
2026-05-05 16:04 41.08155 -72.77450 8006 ft 277 kts 160°
2026-05-05 16:04 41.06429 -72.76293 8731 ft 281 kts 160°
2026-05-05 16:05 41.04684 -72.75124 9473 ft 285 kts 160°
2026-05-05 16:05 41.02913 -72.73938 10166 ft 289 kts 160°
2026-05-05 16:05 41.01073 -72.72711 10585 ft 304 kts 160°
2026-05-05 16:05 40.99140 -72.71428 10984 ft 320 kts 159°
2026-05-05 16:06 40.97100 -72.70073 11342 ft 336 kts 159°
2026-05-05 16:06 40.94969 -72.68653 11705 ft 352 kts 159°
2026-05-05 16:06 40.92729 -72.67162 12022 ft 368 kts 159°
2026-05-05 16:06 40.90402 -72.65612 12413 ft 381 kts 158°
2026-05-05 16:07 40.88009 -72.64015 12993 ft 389 kts 158°
2026-05-05 16:07 40.85582 -72.62394 13587 ft 395 kts 158°
2026-05-05 16:07 40.83124 -72.60755 14271 ft 399 kts 158°
2026-05-05 16:07 40.80633 -72.59144 14945 ft 401 kts 160°
2026-05-05 16:08 40.78036 -72.57864 15618 ft 398 kts 170°
2026-05-05 16:08 40.75317 -72.57460 16216 ft 393 kts 186°
2026-05-05 16:08 40.72635 -72.57975 16813 ft 391 kts 198°
2026-05-05 16:08 40.70093 -72.59183 17411 ft 390 kts 207°
2026-05-05 16:09 40.67701 -72.60844 18042 ft 391 kts 214°
2026-05-05 16:09 40.65476 -72.62901 18570 ft 393 kts 220°
2026-05-05 16:09 40.63376 -72.65206 19182 ft 396 kts 223°
2026-05-05 16:09 40.61324 -72.67613 19798 ft 398 kts 224°
2026-05-05 16:10 40.59260 -72.70054 20316 ft 402 kts 224°
2026-05-05 16:10 40.57169 -72.72507 20881 ft 405 kts 223°
2026-05-05 16:10 40.55054 -72.74961 21398 ft 409 kts 223°
2026-05-05 16:10 40.52913 -72.77419 21941 ft 411 kts 223°
2026-05-05 16:11 40.50748 -72.79886 22430 ft 415 kts 223°
2026-05-05 16:11 40.44123 -72.87360 23873 ft 425 kts 222°
2026-05-05 16:12 40.41872 -72.89885 24335 ft 428 kts 222°
2026-05-05 16:12 40.37335 -72.94964 25289 ft 433 kts 222°
2026-05-05 16:13 40.30413 -73.02695 26584 ft 442 kts 222°
2026-05-05 16:13 40.28076 -73.05301 27050 ft 443 kts 222°
2026-05-05 16:13 40.25726 -73.07917 27499 ft 445 kts 222°
2026-05-05 16:14 40.21054 -73.13109 28796 ft 438 kts 222°
2026-05-05 16:14 40.16431 -73.18237 29862 ft 434 kts 222°
2026-05-05 16:15 40.07199 -73.28472 29973 ft 434 kts 223°
2026-05-05 16:16 39.98033 -73.38744 29969 ft 435 kts 223°
2026-05-05 16:17 39.91146 -73.46444 29974 ft 436 kts 223°
2026-05-05 16:18 39.84236 -73.54142 29969 ft 436 kts 223°
2026-05-05 16:19 39.77322 -73.61837 29972 ft 437 kts 223°
2026-05-05 16:19 39.70392 -73.69536 29969 ft 438 kts 223°
2026-05-05 16:20 39.61146 -73.79771 29970 ft 437 kts 223°
2026-05-05 16:22 39.49562 -73.92539 29981 ft 440 kts 223°
2026-05-05 16:23 39.40218 -74.02799 29983 ft 441 kts 223°
2026-05-05 16:23 39.33194 -74.10477 29984 ft 441 kts 223°
2026-05-05 16:24 39.28506 -74.15589 29989 ft 440 kts 223°
2026-05-05 16:25 39.21473 -74.23238 29985 ft 441 kts 223°
2026-05-05 16:25 39.14404 -74.30909 29982 ft 442 kts 223°
2026-05-05 16:26 39.04973 -74.41108 29992 ft 442 kts 223°
2026-05-05 16:27 39.00253 -74.46199 29984 ft 443 kts 223°
2026-05-05 16:27 38.95529 -74.51286 29979 ft 443 kts 223°
2026-05-05 16:28 38.90861 -74.56433 29984 ft 442 kts 225°
2026-05-05 16:28 38.86321 -74.61759 29993 ft 443 kts 226°
2026-05-05 16:29 38.81802 -74.67121 29985 ft 444 kts 225°
2026-05-05 16:29 38.77259 -74.72478 29996 ft 444 kts 225°
2026-05-05 16:30 38.72669 -74.77754 29997 ft 445 kts 223°
2026-05-05 16:30 38.67877 -74.82791 30007 ft 447 kts 221°
2026-05-05 16:31 38.63027 -74.87751 30001 ft 447 kts 221°
2026-05-05 16:31 38.58168 -74.92732 30002 ft 449 kts 221°
2026-05-05 16:32 38.53311 -74.97733 29999 ft 447 kts 221°
2026-05-05 16:32 38.48538 -75.02848 30003 ft 447 kts 224°
2026-05-05 16:33 38.43796 -75.07980 30014 ft 448 kts 221°
2026-05-05 16:33 38.38826 -75.12776 30015 ft 450 kts 219°
2026-05-05 16:34 38.33781 -75.17479 30016 ft 450 kts 219°
2026-05-05 16:34 38.28741 -75.22181 30018 ft 450 kts 219°
2026-05-05 16:35 38.23705 -75.26906 30022 ft 451 kts 219°
2026-05-05 16:35 38.18672 -75.31643 30027 ft 451 kts 219°
2026-05-05 16:36 38.13636 -75.36385 30022 ft 451 kts 220°
2026-05-05 16:36 38.08596 -75.41127 30030 ft 452 kts 220°
2026-05-05 16:37 38.03621 -75.45975 30031 ft 451 kts 223°
2026-05-05 16:37 37.98981 -75.51270 30027 ft 449 kts 226°
2026-05-05 16:38 37.94449 -75.56702 30023 ft 449 kts 227°
2026-05-05 16:38 37.89903 -75.62134 30024 ft 450 kts 226°
2026-05-05 16:39 37.85329 -75.67539 30028 ft 451 kts 226°
2026-05-05 16:39 37.80725 -75.72933 30015 ft 452 kts 226°
2026-05-05 16:40 37.76104 -75.78322 30026 ft 452 kts 226°
2026-05-05 16:40 37.71459 -75.83717 30026 ft 454 kts 226°
2026-05-05 16:41 37.66822 -75.89091 30028 ft 453 kts 226°
2026-05-05 16:41 37.62179 -75.94463 30028 ft 454 kts 226°
2026-05-05 16:42 37.57847 -76.00201 30020 ft 452 kts 233°
2026-05-05 16:42 37.53880 -76.06330 30021 ft 451 kts 235°
2026-05-05 16:43 37.49995 -76.12507 30011 ft 450 kts 235°
2026-05-05 16:43 37.46101 -76.18656 30012 ft 450 kts 235°
2026-05-05 16:44 37.42187 -76.24770 29673 ft 446 kts 235°
2026-05-05 16:44 37.40253 -76.27772 29163 ft 442 kts 234°
2026-05-05 16:44 37.38322 -76.30761 28477 ft 442 kts 234°
2026-05-05 16:45 37.36385 -76.33754 27647 ft 445 kts 234°
2026-05-05 16:45 37.34435 -76.36763 26720 ft 448 kts 234°
2026-05-05 16:45 37.32467 -76.39795 25858 ft 449 kts 234°
2026-05-05 16:45 37.30512 -76.42798 25340 ft 442 kts 234°
2026-05-05 16:46 37.28581 -76.45760 24750 ft 437 kts 234°
2026-05-05 16:46 37.26671 -76.48688 24170 ft 431 kts 233°
2026-05-05 16:46 37.24802 -76.51557 24031 ft 419 kts 234°
2026-05-05 16:46 37.22973 -76.54394 24036 ft 423 kts 234°
2026-05-05 16:47 37.21118 -76.57299 24034 ft 430 kts 234°
2026-05-05 16:47 37.19254 -76.60219 24028 ft 429 kts 234°
2026-05-05 16:47 37.17393 -76.63132 24032 ft 429 kts 234°
2026-05-05 16:47 37.15525 -76.66050 24037 ft 429 kts 234°
2026-05-05 16:48 37.13657 -76.68963 24032 ft 429 kts 234°
2026-05-05 16:48 37.11786 -76.71876 24038 ft 429 kts 233°
2026-05-05 16:48 37.09917 -76.74781 24040 ft 430 kts 234°
2026-05-05 16:48 37.08043 -76.77690 24035 ft 430 kts 234°
2026-05-05 16:49 37.06169 -76.80596 24038 ft 430 kts 233°
2026-05-05 16:49 37.04293 -76.83501 24041 ft 429 kts 234°
2026-05-05 16:49 37.02410 -76.86417 23849 ft 432 kts 234°
2026-05-05 16:49 37.00531 -76.89321 23565 ft 427 kts 233°
2026-05-05 16:50 36.98684 -76.92171 23137 ft 419 kts 234°
2026-05-05 16:50 36.96872 -76.94963 23042 ft 412 kts 234°
2026-05-05 16:50 36.95051 -76.97768 23052 ft 421 kts 234°
2026-05-05 16:50 36.93202 -77.00619 23041 ft 423 kts 234°
2026-05-05 16:51 36.91352 -77.03465 23048 ft 422 kts 234°
2026-05-05 16:51 36.89503 -77.06305 23043 ft 422 kts 233°
2026-05-05 16:51 36.87649 -77.09151 23041 ft 423 kts 233°
2026-05-05 16:51 36.85772 -77.12028 23044 ft 423 kts 233°
2026-05-05 16:52 36.83913 -77.14874 23033 ft 423 kts 233°
2026-05-05 16:52 36.82050 -77.17725 23032 ft 423 kts 233°
2026-05-05 16:52 36.80191 -77.20567 23038 ft 423 kts 233°
2026-05-05 16:52 36.78325 -77.23412 23035 ft 424 kts 233°
2026-05-05 16:53 36.76443 -77.26249 23040 ft 425 kts 233°
2026-05-05 16:53 36.74549 -77.29074 23042 ft 425 kts 233°
2026-05-05 16:53 36.72654 -77.31888 23047 ft 425 kts 233°
2026-05-05 16:53 36.70755 -77.34701 23047 ft 425 kts 233°
2026-05-05 16:54 36.68854 -77.37517 23053 ft 426 kts 233°
2026-05-05 16:54 36.66953 -77.40333 23051 ft 424 kts 233°
2026-05-05 16:54 36.65054 -77.43144 23054 ft 425 kts 232°
2026-05-05 16:54 36.63147 -77.45968 23035 ft 425 kts 233°
2026-05-05 16:55 36.61251 -77.48776 22509 ft 424 kts 233°
2026-05-05 16:55 36.59369 -77.51560 21898 ft 419 kts 232°
2026-05-05 16:55 36.57507 -77.54311 21305 ft 415 kts 233°
2026-05-05 16:55 36.55661 -77.57037 20703 ft 411 kts 232°
2026-05-05 16:56 36.53840 -77.59723 20108 ft 406 kts 232°
2026-05-05 16:56 36.52036 -77.62384 19527 ft 402 kts 232°
2026-05-05 16:56 36.50257 -77.65006 18944 ft 397 kts 232°
2026-05-05 16:56 36.48479 -77.67628 18343 ft 393 kts 232°
2026-05-05 16:57 36.46727 -77.70210 17749 ft 389 kts 232°
2026-05-05 16:57 36.44997 -77.72760 17166 ft 385 kts 231°
2026-05-05 16:57 36.43282 -77.75284 16582 ft 382 kts 231°
2026-05-05 16:57 36.41584 -77.77781 16004 ft 378 kts 231°
2026-05-05 16:58 36.39901 -77.80253 15414 ft 374 kts 231°
2026-05-05 16:58 36.38235 -77.82699 14831 ft 370 kts 231°
2026-05-05 16:58 36.36583 -77.85119 14247 ft 367 kts 231°
2026-05-05 16:58 36.34947 -77.87515 13667 ft 363 kts 230°
2026-05-05 16:59 36.33328 -77.89886 13098 ft 360 kts 230°
2026-05-05 16:59 36.31722 -77.92234 12523 ft 356 kts 230°
2026-05-05 16:59 36.30130 -77.94559 11935 ft 353 kts 230°
2026-05-05 16:59 36.28556 -77.96860 11336 ft 350 kts 229°
2026-05-05 17:00 36.26996 -77.99141 10913 ft 342 kts 229°
2026-05-05 17:00 36.25490 -78.01341 10721 ft 328 kts 229°
2026-05-05 17:00 36.24053 -78.03441 10598 ft 313 kts 229°
2026-05-05 17:00 36.22793 -78.05566 10470 ft 300 kts 237°
2026-05-05 17:01 36.21847 -78.07809 10338 ft 289 kts 243°
2026-05-05 17:01 36.21064 -78.10051 10206 ft 278 kts 244°
2026-05-05 17:01 36.20351 -78.12216 10082 ft 267 kts 245°
2026-05-05 17:01 36.19683 -78.14327 9814 ft 262 kts 245°
2026-05-05 17:02 36.19011 -78.16423 9432 ft 261 kts 245°
2026-05-05 17:02 36.18327 -78.18494 9080 ft 260 kts 244°
2026-05-05 17:02 36.17639 -78.20547 8731 ft 258 kts 244°
2026-05-05 17:02 36.16953 -78.22586 8388 ft 256 kts 244°
2026-05-05 17:03 36.16271 -78.24611 8053 ft 254 kts 244°
2026-05-05 17:03 36.15591 -78.26636 7714 ft 253 kts 244°
2026-05-05 17:03 36.14964 -78.28666 7379 ft 252 kts 250°
2026-05-05 17:03 36.14532 -78.30759 7053 ft 252 kts 254°
2026-05-05 17:04 36.14180 -78.32873 6718 ft 251 kts 255°
2026-05-05 17:04 36.13835 -78.34975 6390 ft 249 kts 255°
2026-05-05 17:04 36.13477 -78.37037 6208 ft 241 kts 254°
2026-05-05 17:04 36.13127 -78.39016 6132 ft 229 kts 254°
2026-05-05 17:05 36.12783 -78.40925 6068 ft 228 kts 253°
2026-05-05 17:05 36.12440 -78.42819 5965 ft 224 kts 253°
2026-05-05 17:05 36.11890 -78.44564 5959 ft 217 kts 230°
2026-05-05 17:05 36.10834 -78.45881 5959 ft 215 kts 224°
2026-05-05 17:06 36.09867 -78.47307 5956 ft 216 kts 234°
2026-05-05 17:06 36.09057 -78.48881 5956 ft 217 kts 236°
2026-05-05 17:06 36.08232 -78.50456 5955 ft 219 kts 234°
2026-05-05 17:06 36.07346 -78.51973 5937 ft 217 kts 231°
2026-05-05 17:07 36.06388 -78.53441 5728 ft 219 kts 228°
2026-05-05 17:07 36.05387 -78.54874 5371 ft 221 kts 228°
2026-05-05 17:07 36.04381 -78.56299 5066 ft 221 kts 227°
2026-05-05 17:07 36.03372 -78.57722 4764 ft 221 kts 227°
2026-05-05 17:08 36.02358 -78.59134 4488 ft 218 kts 227°
2026-05-05 17:08 36.01356 -78.60518 4201 ft 213 kts 227°
2026-05-05 17:08 36.00369 -78.61874 3869 ft 210 kts 226°
2026-05-05 17:08 35.99395 -78.63192 3597 ft 205 kts 226°
2026-05-05 17:09 35.98445 -78.64482 3321 ft 201 kts 229°
2026-05-05 17:09 35.97627 -78.65864 3058 ft 197 kts 231°
2026-05-05 17:09 35.96741 -78.67137 2800 ft 193 kts 224°
2026-05-05 17:09 35.95783 -78.68274 2540 ft 186 kts 222°
2026-05-05 17:10 35.94893 -78.69342 2307 ft 170 kts 224°
2026-05-05 17:10 35.94116 -78.70329 2121 ft 152 kts 225°
2026-05-05 17:10 35.93373 -78.71237 1879 ft 147 kts 223°
2026-05-05 17:10 35.92650 -78.72118 1712 ft 145 kts 224°
2026-05-05 17:11 35.91945 -78.73004 1528 ft 146 kts 225°
2026-05-05 17:11 35.91218 -78.73888 1327 ft 147 kts 224°
2026-05-05 17:11 35.90497 -78.74772 1139 ft 147 kts 225°
2026-05-05 17:11 35.89781 -78.75662 953 ft 147 kts 224°
2026-05-05 17:12 35.89040 -78.76551 763 ft 148 kts 225°
2026-05-05 17:12 35.88313 -78.77477 575 ft 150 kts 224°
2026-05-05 17:12 35.87569 -78.78367 431 ft 147 kts 226°
2026-05-05 17:12 35.86843 -78.79266 405 ft 132 kts 224°
2026-05-05 17:13 35.86405 -78.79794 386 ft 47 kts 222°
2026-05-05 17:13 35.86312 -78.79991 380 ft 13 kts 313°
2026-05-05 17:13 35.86364 -78.79981 381 ft 8 kts 38°
2026-05-05 17:13 35.86453 -78.79900 384 ft 22 kts 36°
2026-05-05 17:14 35.86586 -78.79772 387 ft 23 kts 45°
2026-05-05 17:14 35.86693 -78.79639 392 ft 20 kts 45°
2026-05-05 17:14 35.86791 -78.79519 396 ft 22 kts 45°
2026-05-05 17:14 35.86923 -78.79356 403 ft 30 kts 45°
2026-05-05 17:15 35.87064 -78.79182 410 ft 27 kts 45°
2026-05-05 17:15 35.87200 -78.79043 415 ft 23 kts 38°
2026-05-05 17:15 35.87286 -78.78976 417 ft 10 kts
2026-05-05 17:15 35.87340 -78.79022 415 ft 2 kts 314°
2026-05-05 17:16 35.87343 -78.79025 414 ft 0 kts 314°